Lid_Strength_Index
1 -0 -1 -1 -1 -1 -1 -1 -1 -1 -1 -1 -1 -1 -1 -1 -1 -1 -1 -1 -1 -1 -1 -1 -1 -1 -1 -1 -1 -1 -1 -2 -1 -1 -1 -1 -1 -1 -1 -1 -1 -1 -1
0 -0 -1 -1 -1 -1 -1 -1 -1 -1 -1 -1 -1 -1 -1 -1 -1 -1 -1 -1 -1 -1 -1 -1 -1 -1 -1 -1 -1 -1 -1 -1 -1 -1 -1 -1 -1 -1 -1 -1 -1 -1 -1
0 -1 -1 -1 -1 -1 -1 -1 -1 -1 -1 -1 -1 -1 -1 -1 -1 -1 -1 -1 -1 -1 -1 -1 -1 -1 -1 -1 -1 -1 -1 -1 -1 -1 -1 -1 -1 -1 -1 -1 -1 -1 -1
-0 -1 -1 -1 -1 -1 -1 -1 -1 -1 -1 -1 -1 -1 -1 -1 -1 -1 -1 -1 -1 -1 -1 -1 -1 -1 -1 -1 -1 -1 -1 -1 -1 -1 -1 -1 -1 -1 -1 -1 -1 -1 -1
-0 -1 -1 -1 -1 -1 -1 -1 -1 -1 -1 -1 -1 -1 -1 -1 -1 -1 -1 -1 -1 -1 -1 -1 -1 -1 -1 -1 -1 -1 -1 -1 -1 -1 -1 -1 -2 -1 -1 -1 -1 -1 -1
0 -1 -1 -1 -1 -1 -1 -1 -1 -1 -1 -1 -1 -1 -1 -1 -1 -1 -1 -1 -1 -1 -1 -1 -1 -1 -1 -1 -1 -1 -1 -1 -1 -1 -1 -1 -1 -2 -1 -1 -1 -1 -1
0 -1 -1 -1 -1 -1 -1 -1 -1 -1 -1 -1 -1 -1 -1 -1 -1 -1 -1 -1 -1 -1 -1 -1 -1 -1 -2 -1 -1 -1 -1 -1 -1 -1 -1 -1 -1 -1 -1 -1 -1 -1 -1
0 -0 -1 -1 -1 -1 -1 -1 -1 -1 -1 -1 -1 -1 -1 -1 -1 -1 -1 -1 -1 -1 -1 -1 -1 -1 -2 -2 -2 -2 -1 -1 0 -1 -1 -1 -1 -2 -1 -1 -1 -1 -1
-0 -0 -0 -1 -1 -1 -1 -1 -1 -1 -1 -1 -1 -1 -1 -1 -1 -1 -1 -1 -1 -1 -1 -1 -1 -1 -2 -2 -2 -2 -1 -1 0 -1 -1 -1 -1 -1 -1 -1 -1 -1 -1
0 -0 -0 -0 -1 -1 -1 -1 -1 -1 -1 -1 -1 -1 -1 -1 -1 -1 -1 -1 -1 -1 -1 -1 -1 -1 -2 -2 -2 -2 -1 -1 0 -1 -1 -1 -1 -1 -1 -1 -1 -1 -1
1 0 -0 -0 -0 -1 -1 -1 -1 -1 -1 -1 -1 -1 -1 -1 -1 -1 -1 -1 -1 -1 -1 -1 -1 -2 -2 -2 -2 -2 -1 -1 -1 -1 -1 -1 -1 -1 -1 -1 -1 -1 -1
2 1 0 -0 -0 -1 -1 -1 -1 -1 -1 -1 -1 -1 -1 -1 -1 -1 -1 -1 -1 -1 -1 -1 -1 -2 -1 -1 -1 -1 -1 -1 -1 -1 -1 -1 -2 -1 -1 -1 -1 -1 -1
1 1 0 0 -0 -0 -0 -1 -1 -1 -1 -1 -1 -1 -1 -1 -1 -1 -1 -1 -1 -1 -1 -1 -1 -1 -1 -1 -1 -1 -1 -1 -1 -1 -1 -1 -2 -1 -1 -1 -1 -1 -1
2 1 0 0 0 -0 -0 -0 -0 -0 -1 -0 -1 -1 -1 -0 -0 -1 -1 -1 -1 -1 -1 -1 -1 -1 -1 -1 -1 -1 -1 -1 -1 -1 -1 -1 -2 -2 -1 -1 -1 -1 -1
3 1 1 -0 0 0 -0 -0 -0 -0 -0 -1 -1 -1 -1 -0 -0 -0 -1 -1 -1 -1 -1 -1 -1 -1 -1 -1 -1 -1 -1 -1 -1 -1 -1 -2 -2 -2 -1 -1 -1 -1 -1
7 1 0 0 -0 -0 0 -0 0 -0 -1 -1 -1 -1 -1 -1 -0 -0 -0 -0 -1 -1 -1 -1 -1 -1 -1 -1 -0 -1 -1 -1 -1 -1 -1 -1 -2 -2 -2 -1 -2 -1 -1
7 6 0 0 -0 0 0 -0 -0 -0 -0 -0 -0 -1 -1 -1 -1 -1 -0 -0 -1 -1 -1 -1 -1 -1 -0 -0 -0 -0 -1 -1 -1 -1 -1 -2 -1 -2 -2 -1 -2 -2 -1
4 5 4 0 0 0 0 0 0 -0 -0 -0 -0 -1 -1 -1 -1 -1 -0 -0 -1 -1 -1 -0 -0 0 0 0 0 -0 -1 -1 -1 -1 -1 -1 -2 -2 -1 -1 -1 -2 -2
2 3 4 0 0 1 0 0 -0 -0 -0 -0 -1 -0 -1 -1 -1 -0 -0 -0 -1 -0 -0 -0 -0 -0 1 0 0 -0 -0 -0 -1 -1 -1 -1 -1 -2 -2 -1 -1 -1 -1
1 1 2 1 0 0 0 0 0 0 0 -0 -0 -0 -1 -1 -1 -0 -0 -0 -1 -0 0 -0 0 -0 0 0 1 2 1 1 -0 -0 -1 -1 -0 -0 -1 -1 -2 -1 -1
2 0 0 2 0 1 1 2 2 2 1 1 0 -0 -0 -1 -1 -0 -0 -0 -0 0 0 -0 0 1 1 0 2 3 3 3 3 2 0 1 2 2 1 0 0 -1 -0
2 1 0 0 0 1 1 1 1 1 1 1 0 -0 -1 -0 -1 -0 -0 0 -0 0 0 0 0 1 1 0 2 2 4 4 4 3 3 2 2 2 2 3 3 3 2
2 1 0 0 0 1 0 1 1 1 1 2 1 1 0 -0 -0 -0 -0 -0 0 0 1 0 0 1 2 1 2 2 4 5 4 3 3 3 3 5 5 4 3 3 3
1 1 1 0 0 1 0 1 2 3 3 2 1 1 0 0 -0 -0 -1 -0 0 0 1 0 0 0 1 2 3 2 2 1 4 5 4 4 5 5 4 4 5 5 5
1 1 1 0 0 1 1 1 2 2 2 1 1 1 1 0 -0 -0 -0 -0 0 0 0 0 0 0 0 1 2 3 3 2 1 3 4 6 5 4 5 5 6 6 6
1 1 1 1 1 1 1 1 1 2 2 2 2 2 1 1 0 -0 -0 -0 -0 0 0 0 0 0 1 1 2 2 2 2 3 3 4 4 3 5 5 5 5 7 7